logo
Rechercher aéroport 
image banner adimage banner adimage banner ad
image banner ad

2B9 - Post Mills

Situé à Post Mills, United States

ICAO - 2B9, IATA -

Données fournies par Airmate  

Information générale

Coordonnées: N43°53'1" W72°15'7"
Élévation : 696 feet MSL.
Variation magnétique : -16° East
Voir autres Aéroports à Vermont

Données opérationnelles

Special qualification required
Heure actuelle UTC:
Heure actuelle locale:
Météo à : KLEB - Lebanon Muni ( 29 km )
METAR: KLEB 241853Z 20004KT 10SM SCT023 BKN043 OVC055 21/17 A2955 RMK AO2 RAB1759E09B36E53 SLP998 P0001 T02060172
TAF: KLEB 241733Z 2418/2518 27006KT P6SM BKN040 FM242100 34010G18KT P6SM -SHRA BKN025 FM250200 35004KT P6SM BKN050 FM251200 32005KT P6SM SKC
Voir NOTAMs / SUP AIP / TFR affectant cet aéroport [VIEW]
Fréquences de communication: [VIEW]

Pistes:

Identifiant RWYQFULongueur (ft)Largeur (ft)SurfaceLDA (ft)
04290080GRASS
22290080GRASS
0533°230080GRASS
23213°230080GRASS

Coordonnées de l'aéroport

Adresse: Post Mills United States

Vue satellite de 2B9